Date String (YYYY-MM-DD hh:mm:ss) UTC,Instrument flags,Ambient pressure (hPa),Sample flow (lpm),Bypass flow (lpm),Sample temperature (°C),Ambient temperature (°C),ASC tube jacket temperature (°C),LED temperature (°C),Box temperature (°C),Sample RH (%),Span deviation,Mass concentration (μg/m³),Mass concentration (μg/m³),Mass concentration (μg/m³)
DateTimeUTC,F1_M11,P_M11,Q1_M11,Q2_M11,T1_M11,T2_M11,T3_M11,T4_M11,T5_M11,U1_M11,ZSPAN_M11,X0_M11,X2_M11,X1_M11
2022-02-09 08:00:00,,0827.0,5.01,0.00,22.8,22.1,00.0,31.8,24.6,05.5,0000.0,0001.71,0001.12,0000.82
2022-02-09 08:01:00,,0827.0,5.00,0.00,22.8,22.1,00.0,31.8,24.7,05.5,0000.0,0001.67,0001.10,0000.81
2022-02-09 08:02:00,,0827.0,5.00,0.00,22.8,22.1,00.0,31.8,24.7,05.7,0000.0,0001.70,0001.11,0000.81
2022-02-09 08:03:00,,0827.0,4.99,0.00,22.8,22.1,00.0,31.8,24.6,05.7,0000.0,0001.90,0001.12,0000.82
2022-02-09 08:04:00,,0827.0,5.00,0.00,22.8,22.1,00.0,31.8,24.7,05.6,0000.0,0001.97,0001.14,0000.82
2022-02-09 08:05:00,,0826.9,5.00,0.00,22.8,22.1,00.0,31.8,24.7,05.6,0000.0,0002.06,0001.17,0000.82
2022-02-09 08:06:00,,0827.0,4.99,0.00,22.8,22.1,00.0,31.8,24.7,05.6,0000.0,0002.17,0001.20,0000.81
2022-02-09 08:07:00,,0826.9,5.02,0.00,22.8,22.1,00.0,31.8,24.7,05.5,0000.0,0002.26,0001.22,0000.81
2022-02-09 08:08:00,,0827.0,4.98,0.00,22.8,22.1,00.0,31.8,24.7,05.6,0000.0,0002.26,0001.19,0000.80
2022-02-09 08:09:00,,0827.0,5.01,0.00,22.8,22.1,00.0,31.8,24.6,06.1,0000.0,0002.28,0001.17,0000.77
2022-02-09 08:10:00,,0827.0,4.99,0.00,22.8,22.1,00.0,31.8,24.6,05.8,0000.0,0002.24,0001.16,0000.76
2022-02-09 08:11:00,,0826.9,5.00,0.00,22.8,22.1,00.0,31.8,24.6,05.8,0000.0,0002.22,0001.15,0000.74
2022-02-09 08:12:00,,0827.0,5.01,0.00,22.8,22.0,00.0,31.8,24.6,05.9,0000.0,0002.21,0001.14,0000.74
2022-02-09 08:13:00,,0826.9,4.99,0.00,22.8,22.0,00.0,31.8,24.6,06.0,0000.0,0002.14,0001.12,0000.73
2022-02-09 08:14:00,,0826.9,5.02,0.00,22.8,22.0,00.0,31.8,24.5,05.9,0000.0,0001.95,0001.09,0000.72
2022-02-09 08:15:00,,0826.9,4.99,0.00,22.7,21.9,00.0,31.7,24.5,05.8,0000.0,0001.89,0001.07,0000.71
2022-02-09 08:16:00,,0826.9,5.00,0.00,22.7,21.9,00.0,31.7,24.4,05.8,0000.0,0001.80,0001.05,0000.71
2022-02-09 08:17:00,,0826.9,4.99,0.00,22.6,21.9,00.0,31.7,24.4,05.9,0000.0,0001.71,0001.01,0000.71
2022-02-09 08:18:00,,0826.9,5.00,0.00,22.6,21.8,00.0,31.7,24.3,05.9,0000.0,0001.77,0001.04,0000.72
2022-02-09 08:19:00,,0826.9,5.00,0.00,22.6,21.8,00.0,31.7,24.3,05.8,0000.0,0002.71,0001.08,0000.73
2022-02-09 08:20:00,,0826.9,5.00,0.00,22.6,21.8,00.0,31.7,24.3,05.9,0000.0,0003.47,0001.07,0000.73
2022-02-09 08:21:00,,0826.8,5.00,0.00,22.6,21.8,00.0,31.7,24.3,05.9,0000.0,0003.42,0001.04,0000.74
2022-02-09 08:22:00,,0826.9,4.99,0.00,22.6,21.7,00.0,31.6,24.3,05.9,0000.0,0003.42,0001.05,0000.74
2022-02-09 08:23:00,,0826.9,5.00,0.00,22.6,21.8,00.0,31.6,24.3,05.9,0000.0,0003.39,0001.04,0000.75
2022-02-09 08:24:00,,0826.9,5.01,0.00,22.6,21.8,00.0,31.6,24.3,05.9,0000.0,0003.43,0001.05,0000.74
2022-02-09 08:25:00,,0826.8,4.99,0.00,22.6,21.8,00.0,31.6,24.3,05.8,0000.0,0003.36,0001.02,0000.74
2022-02-09 08:26:00,,0826.8,5.01,0.00,22.6,21.8,00.0,31.6,24.3,06.0,0000.0,0003.29,0001.00,0000.73
2022-02-09 08:27:00,,0826.8,5.00,0.00,22.6,21.8,00.0,31.6,24.4,06.0,0000.0,0003.30,0001.00,0000.72
2022-02-09 08:28:00,,0826.8,4.99,0.00,22.6,21.8,00.0,31.6,24.4,06.1,0000.0,0003.28,0001.00,0000.72
2022-02-09 08:29:00,,0826.8,5.00,0.00,22.6,21.9,00.0,31.6,24.4,06.1,0000.0,0003.18,0000.98,0000.71
2022-02-09 08:30:00,,0826.8,5.01,0.00,22.6,21.9,00.0,31.6,24.4,06.1,0000.0,0002.26,0000.95,0000.70
2022-02-09 08:31:00,,0826.9,5.00,0.00,22.6,21.9,00.0,31.6,24.4,06.2,0000.0,0001.50,0000.96,0000.70
2022-02-09 08:32:00,,0826.8,4.98,0.00,22.7,21.9,00.0,31.6,24.4,06.2,0000.0,0001.54,0000.98,0000.70
2022-02-09 08:33:00,,0826.8,5.01,0.00,22.6,21.9,00.0,31.6,24.4,06.3,0000.0,0001.55,0000.98,0000.69
2022-02-09 08:34:00,,0826.8,4.99,0.00,22.7,21.9,00.0,31.6,24.4,06.3,0000.0,0001.63,0001.01,0000.70
2022-02-09 08:35:00,,0826.8,5.02,0.00,22.7,21.9,00.0,31.6,24.4,06.1,0000.0,0001.59,0001.00,0000.69
2022-02-09 08:36:00,,0826.8,5.00,0.00,22.7,21.9,00.0,31.6,24.4,06.2,0000.0,0001.64,0001.03,0000.69
2022-02-09 08:37:00,,0826.8,5.00,0.00,22.7,21.9,00.0,31.6,24.4,06.3,0000.0,0001.74,0001.05,0000.69
2022-02-09 08:38:00,,0826.7,5.00,0.00,22.7,21.9,00.0,31.6,24.4,06.4,0000.0,0002.62,0001.04,0000.70
2022-02-09 08:39:00,,0826.7,4.99,0.00,22.7,21.9,00.0,31.6,24.4,06.3,0000.0,0002.72,0001.03,0000.70
2022-02-09 08:40:00,,0826.7,5.02,0.00,22.7,21.8,00.0,31.6,24.3,06.3,0000.0,0002.83,0001.04,0000.71
2022-02-09 08:41:00,,0826.7,4.98,0.00,22.7,21.8,00.0,31.6,24.3,06.5,0000.0,0002.84,0001.03,0000.71
2022-02-09 08:42:00,,0826.7,5.02,0.00,22.7,21.8,00.0,31.6,24.3,06.2,0000.0,0002.80,0001.02,0000.71
2022-02-09 08:43:00,,0826.7,4.99,0.00,22.6,21.8,00.0,31.6,24.3,06.4,0000.0,0002.69,0001.00,0000.70
2022-02-09 08:44:00,,0826.7,5.02,0.00,22.6,21.8,00.0,31.6,24.3,06.3,0000.0,0002.80,0001.05,0000.70
2022-02-09 08:45:00,,0826.7,4.99,0.00,22.6,21.8,00.0,31.6,24.3,06.4,0000.0,0002.76,0001.03,0000.70
2022-02-09 08:46:00,,0826.7,5.02,0.00,22.6,21.7,00.0,31.6,24.3,06.5,0000.0,0002.72,0001.02,0000.70
2022-02-09 08:47:00,,0826.7,4.99,0.00,22.6,21.8,00.0,31.6,24.3,06.4,0000.0,0002.74,0001.03,0000.71
2022-02-09 08:48:00,,0826.7,5.01,0.00,22.6,21.7,00.0,31.6,24.3,06.5,0000.0,0002.63,0001.00,0000.70
2022-02-09 08:49:00,,0826.7,5.01,0.00,22.6,21.7,00.0,31.6,24.3,06.8,0000.0,0001.88,0001.00,0000.69
2022-02-09 08:50:00,,0826.7,4.99,0.00,22.6,21.7,00.0,31.6,24.3,06.6,0000.0,0001.69,0001.02,0000.70
2022-02-09 08:51:00,,0826.7,5.01,0.00,22.6,21.7,00.0,31.6,24.3,06.3,0000.0,0001.55,0000.99,0000.68
2022-02-09 08:52:00,,0826.8,5.00,0.00,22.6,21.7,00.0,31.6,24.3,06.3,0000.0,0001.55,0001.01,0000.69
2022-02-09 08:53:00,,0826.7,5.02,0.00,22.6,21.7,00.0,31.6,24.3,06.4,0000.0,0001.48,0000.99,0000.69
2022-02-09 08:54:00,,0826.7,4.99,0.00,22.6,21.8,00.0,31.6,24.3,06.4,0000.0,0001.45,0000.99,0000.68
2022-02-09 08:55:00,,0826.7,5.00,0.00,22.6,21.8,00.0,31.6,24.3,06.5,0000.0,0001.40,0000.97,0000.68
2022-02-09 08:56:00,,0826.7,5.00,0.00,22.6,21.8,00.0,31.6,24.2,06.6,0000.0,0001.39,0000.96,0000.68
2022-02-09 08:57:00,,0826.7,4.98,0.00,22.6,21.8,00.0,31.6,24.3,06.7,0000.0,0001.41,0000.97,0000.68
2022-02-09 08:58:00,,0826.7,5.01,0.00,22.6,21.7,00.0,31.6,24.2,06.5,0000.0,0001.32,0000.93,0000.67
2022-02-09 08:59:00,,0826.8,4.99,0.00,22.6,21.7,00.0,31.6,24.2,06.4,0000.0,0001.35,0000.94,0000.68
